Location: Unspecified
(58.7730°N, 5.8460°E)
Time: 23:15:12
(UTC+02:00)

Cosmos 2058 - Visible Passes

Search period start: 02 September 2014 00:00
Search period end: 12 September 2014 00:00
Orbit: 570 x 595 km, 82.5° (Epoch: 01 September)

Date Brightness Start Highest point End Pass type
(mag) Time Alt. Az. Time Alt. Az. Time Alt. Az.
02 Sep 3.4 00:15:11 10° NNW 00:19:13 50° W 00:19:58 44° SW visible
02 Sep 3.9 22:43:57 10° N 22:47:46 34° ENE 22:49:20 25° ESE visible
03 Sep 3.8 00:21:05 10° NNW 00:24:57 39° W 00:25:43 35° WSW visible
03 Sep 3.5 22:49:41 10° N 22:53:40 43° ENE 22:55:05 31° ESE visible
04 Sep 4.2 00:27:01 10° NNW 00:30:40 30° W 00:31:28 28° WSW visible
04 Sep 5.1 21:19:43 10° NNE 21:21:25 12° NE 21:23:07 10° ENE visible
04 Sep 3.1 22:55:26 10° N 22:59:31 55° ENE 23:00:51 37° SE visible
05 Sep 4.6 00:33:01 10° NNW 00:36:22 24° W 00:37:14 22° WSW visible
05 Sep 4.9 21:25:03 10° NNE 21:27:26 15° NE 21:29:49 10° E visible
05 Sep 2.9 23:01:12 10° N 23:05:22 71° ENE 23:06:38 43° SE visible
06 Sep 4.9 00:39:04 10° NW 00:42:01 19° W 00:43:01 18° WSW visible
06 Sep 4.7 21:30:33 10° NNE 21:33:25 18° NE 21:36:01 11° E visible
06 Sep 2.8 23:07:00 10° NNW 23:11:10 89° WSW 23:12:24 45° SSE visible
07 Sep 5.2 00:45:15 10° NW 00:47:40 15° W 00:48:48 14° W visible
07 Sep 4.4 21:36:08 10° N 21:39:23 22° ENE 21:41:49 14° ESE visible
07 Sep 3.0 23:12:49 10° NNW 23:16:57 69° W 23:18:12 43° SSW visible
08 Sep 5.5 00:51:42 10° NW 00:53:16 12° WNW 00:54:35 11° W visible
08 Sep 4.1 21:41:46 10° N 21:45:19 26° ENE 21:47:37 17° ESE visible
08 Sep 3.5 23:18:40 10° NNW 23:22:43 53° W 23:24:00 37° SSW visible
09 Sep 3.8 21:47:27 10° N 21:51:14 33° ENE 21:53:26 20° ESE visible
09 Sep 3.9 23:24:32 10° NNW 23:28:26 41° W 23:29:49 30° SW visible
10 Sep 3.5 21:53:09 10° N 21:57:06 41° ENE 21:59:16 23° SE visible
10 Sep 4.4 23:30:27 10° NNW 23:34:09 32° W 23:35:39 24° SW visible
11 Sep 3.1 21:58:53 10° N 22:02:57 52° ENE 22:05:06 25° SE visible
11 Sep 4.8 23:36:24 10° NNW 23:39:50 25° W 23:41:30 19° WSW visible
